Flag for U.S.A. Weather past 2 weeks in Fullerton, California, U.S.A.

Now
53 °F

Sunny.


Feels Like: 53 °F
Forecast: 39 / 62 °F
Wind: No wind

Location: Fullerton Municipal Airport

Current Time: Dec 28, 2014 at 10:11:01 AM

Latest Report: Dec 28, 2014 at 9:53 AM


Visibility: 10 mi

Pressure: 30.27 "Hg

Humidity: 37%

Dew point: 27 °F

Location of FullertonLocation

Historic Weather in Fullerton — Graph

°F

Fullerton temperature yesterday

Maximum temperature yesterday: 63 °F (at 12:53 PM)
Minimum temperature yesterday: 45 °F (at 6:53 AM)
Average temperature yesterday: 54 °F

Past Weeks' High & Low Weather Summary

 TemperatureHumidityPressure
High84 °F (Dec 23, 1:53 PM)93% (Dec 23, 4:53 AM)30.32 "Hg (Dec 23, 4:53 AM)
Low39 °F (Dec 28, 5:53 AM)12% (Dec 25, 3:53 PM)29.76 "Hg (Dec 25, 2:53 AM)
Average57 °F62%30.06 "Hg
* Reported Dec 13 8:53 AM — Dec 28 8:53 AM, Fullerton, Weather by CustomWeather, © 2014

Note: Actual official high and low records may vary slightly from our data, if they occured in-between our weather recording intervals... More about our weather records

Advertising

Fullerton weather history for previous 24 hours

 ConditionsComfort  
Time TempWeatherWind HumidityBarometerVisibility
8:53 AM
Dec 28
48 °FSunny.No wind43%30.26 "Hg10 mi
7:53 AM44 °FSunny.3 mph51%30.26 "Hg10 mi
6:53 AM41 °FClear.No wind60%30.25 "Hg10 mi
5:53 AM39 °FClear.No wind73%30.24 "Hg10 mi
4:53 AM40 °FClear.No wind68%30.24 "Hg10 mi
3:53 AM41 °FClear.No wind65%30.25 "Hg10 mi
2:53 AM43 °FClear.5 mph56%30.27 "Hg10 mi
1:53 AM43 °FClear.No wind68%30.28 "Hg10 mi
12:53 AM45 °FClear.3 mph60%30.28 "Hg10 mi
11:53 PM
Dec 27
47 °FClear.6 mph54%30.29 "Hg10 mi
10:53 PM46 °FClear.No wind61%30.31 "Hg10 mi
9:53 PM48 °FClear.3 mph52%30.32 "Hg10 mi
8:53 PM48 °FClear.6 mph54%30.32 "Hg10 mi
7:53 PM50 °FClear.No wind50%30.32 "Hg10 mi
6:53 PM53 °FClear.No wind39%30.32 "Hg10 mi
5:53 PM56 °FClear.5 mph30%30.29 "Hg10 mi
4:53 PM59 °FClear.3 mph19%30.28 "Hg10 mi
3:53 PM62 °FSunny.3 mph14%30.27 "Hg10 mi
2:53 PM63 °FSunny.3 mph15%30.27 "Hg10 mi
1:53 PM63 °FSunny.6 mph15%30.27 "Hg10 mi
12:53 PM63 °FSunny.6 mph15%30.27 "Hg10 mi
11:53 AM62 °FSunny.7 mph17%30.29 "Hg10 mi
10:53 AM61 °FSunny.No wind15%30.31 "Hg10 mi
Weather by CustomWeather, © 2014

See weather overviewHow to use our weather pages